DW9151 Weather Reports


Display with metric or nautical units.
time (UTC)temp
F
wind
direction
speed
MPH
gust
MPH
rain 1hr
in
rain 24hr
in
rain mn
in
humidity
%
barometer
mb
20260902151604 59 171 2.0 7.0 0.00 0.00 0.00 81 1019.0
20260902151105 60 172 1.0 3.0 0.00 0.00 0.00 81 1019.1
20260902150605 59 2 5.0 7.0 0.00 0.00 0.00 82 1019.1
20260902150105 59 171 5.0 6.0 0.00 0.00 0.00 81 1019.2
20260902145604 60 160 2.0 12.0 0.00 0.00 0.00 81 1019.2
20260902145104 60 144 5.0 10.0 0.00 0.00 0.00 80 1019.1
20260902144606 60 132 4.0 8.0 0.00 0.00 0.00 81 1019.1
20260902144105 60 190 3.0 6.0 0.00 0.00 0.00 80 1019.1
20260902143605 60 153 6.0 8.0 0.00 0.00 0.00 78 1019.2
20260902143104 61 158 3.0 8.0 0.00 0.00 0.00 80 1019.3
20260902142605 60 197 3.0 8.0 0.00 0.00 0.00 81 1019.3
20260902142104 60 148 5.0 9.0 0.00 0.00 0.00 80 1019.4
20260902141604 60 145 6.0 10.0 0.00 0.00 0.00 80 1019.4
20260902141104 60 157 4.0 6.0 0.00 0.00 0.00 80 1019.5
20260902140605 60 176 4.0 10.0 0.00 0.00 0.00 80 1019.5
20260902140105 61 145 5.0 10.0 0.00 0.00 0.00 79 1019.5
20260902135604 61 2 3.0 7.0 0.00 0.00 0.00 81 1019.5
20260902135105 61 173 6.0 9.0 0.00 0.00 0.00 77 1019.5
20260902133605 62 124 5.0 9.0 0.00 0.00 0.00 79 1019.5
20260902133104 61 165 4.0 7.0 0.00 0.00 0.00 78 1019.5
20260902132604 61 139 5.0 9.0 0.00 0.00 0.00 80 1019.5
20260902131604 61 99 5.0 7.0 0.00 0.00 0.00 79 1019.6
20260902131104 61 143 4.0 7.0 0.00 0.00 0.00 77 1019.6
20260902130604 61 131 5.0 8.0 0.00 0.00 0.00 80 1019.6
20260902130104 61 136 2.0 6.0 0.00 0.00 0.00 80 1019.5
20260902125605 61 150 4.0 8.0 0.00 0.00 0.00 77 1019.6
20260902125105 61 156 5.0 9.0 0.00 0.00 0.00 80 1019.7
20260902124605 61 139 3.0 12.0 0.00 0.00 0.00 81 1019.6
20260902124105 61 142 3.0 9.0 0.00 0.00 0.00 79 1019.7
20260902123604 61 134 5.0 8.0 0.00 0.00 0.00 77 1019.7
20260902122604 63 131 3.0 9.0 0.00 0.00 0.00 79 1019.8
20260902122104 62 135 3.0 8.0 0.00 0.00 0.00 80 1019.7
20260902121605 61 13 5.0 7.0 0.00 0.00 0.00 80 1019.8
20260902121104 62 4 4.0 7.0 0.00 0.00 0.00 77 1019.9
20260902120104 61 171 3.0 7.0 0.00 0.00 0.00 79 1020.0
20260902115604 61 131 2.0 9.0 0.00 0.00 0.00 80 1019.9
20260902115104 61 144 5.0 7.0 0.00 0.00 0.00 80 1020.0
20260902114604 61 141 4.0 8.0 0.00 0.00 0.00 82 1020.0
20260902114104 61 158 3.0 7.0 0.00 0.00 0.00 80 1019.9
20260902113604 60 157 2.0 6.0 0.00 0.00 0.00 82 1019.9
20260902113105 61 139 6.0 10.0 0.00 0.00 0.00 77 1020.0
20260902112604 62 135 3.0 7.0 0.00 0.00 0.00 80 1019.9
20260902112105 62 128 6.0 12.0 0.00 0.00 0.00 81 1019.9
20260902111604 62 124 5.0 10.0 0.00 0.00 0.00 82 1020.0
20260902111104 60 133 4.0 7.0 0.00 0.00 0.00 81 1020.1
20260902110604 59 126 4.0 9.0 0.00 0.00 0.00 82 1020.1
20260902110105 59 148 2.0 6.0 0.00 0.00 0.00 83 1020.2
20260902105604 60 146 6.0 9.0 0.00 0.00 0.00 79 1020.2
20260902105104 62 132 3.0 10.0 0.00 0.00 0.00 79 1020.3
20260902104604 62 138 4.0 8.0 0.00 0.00 0.00 80 1020.2
20260902104104 62 136 3.0 10.0 0.00 0.00 0.00 82 1020.3
20260902103604 62 134 3.0 9.0 0.00 0.00 0.00 82 1020.4
20260902103104 61 69 5.0 12.0 0.00 0.00 0.00 82 1020.5
20260902102606 61 147 4.0 9.0 0.00 0.00 0.00 83 1020.5
20260902102106 61 137 5.0 9.0 0.00 0.00 0.00 82 1020.5
20260902101606 61 131 2.0 7.0 0.00 0.00 0.00 81 1020.6
20260902101105 59 127 2.0 10.0 0.00 0.00 0.00 83 1020.6
20260902100606 59 139 5.0 9.0 0.00 0.00 0.00 84 1020.5
20260902100106 58 132 5.0 8.0 0.00 0.00 0.00 83 1020.5
20260902095606 58 134 7.0 12.0 0.00 0.00 0.00 82 1020.4
20260902095106 59 145 4.0 8.0 0.00 0.00 0.00 81 1020.3
20260902094606 60 136 4.0 12.0 0.00 0.00 0.00 80 1020.4
20260902093605 62 146 3.0 10.0 0.00 0.00 0.00 79 1020.4
20260902092606 63 138 4.0 8.0 0.00 0.00 0.00 77 1020.5
20260902092105 63 137 5.0 8.0 0.00 0.00 0.00 74 1020.6
20260902091606 63 140 2.0 7.0 0.00 0.00 0.00 77 1020.5
20260902090605 63 134 3.0 6.0 0.00 0.00 0.00 76 1020.4
20260902090106 63 136 2.0 7.0 0.00 0.00 0.00 78 1020.4
20260902085606 63 134 3.0 7.0 0.00 0.00 0.00 76 1020.4
20260902085105 63 141 5.0 8.0 0.00 0.00 0.00 74 1020.3
20260902084106 61 137 2.0 5.0 0.00 0.00 0.00 79 1020.3
20260902083606 60 129 3.0 6.0 0.00 0.00 0.00 79 1020.3
20260902083106 60 127 3.0 7.0 0.00 0.00 0.00 79 1020.3
20260902082606 60 120 3.0 10.0 0.00 0.00 0.00 78 1020.2
20260902082106 61 132 3.0 7.0 0.00 0.00 0.00 80 1020.2
20260902081606 61 129 5.0 9.0 0.00 0.00 0.00 77 1020.1
20260902081105 62 146 4.0 9.0 0.00 0.00 0.00 76 1020.2
20260902080605 62 153 3.0 7.0 0.00 0.00 0.00 76 1020.1
20260902075606 63 154 2.0 7.0 0.00 0.00 0.00 76 1020.0
20260902074606 62 147 1.0 3.0 0.00 0.00 0.00 76 1019.9
20260902074106 62 141 3.0 5.0 0.00 0.00 0.00 76 1019.8
20260902073606 63 136 2.0 5.0 0.00 0.00 0.00 75 1019.9
20260902073105 62 129 2.0 3.0 0.00 0.00 0.00 75 1019.8
20260902072606 61 128 1.0 3.0 0.00 0.00 0.00 78 1019.8
20260902072105 61 104 1.0 6.0 0.00 0.00 0.00 79 1019.8
20260902071606 60 101 2.0 3.0 0.00 0.00 0.00 76 1019.7
20260902071105 61 97 2.0 5.0 0.00 0.00 0.00 76 1019.7
20260902070106 61 330 1.0 3.0 0.00 0.00 0.00 76 1019.7
20260902065606 61 356 1.0 3.0 0.00 0.00 0.00 78 1019.6
20260902065105 61 353 2.0 3.0 0.00 0.00 0.00 76 1019.7
20260902064606 61 352 1.0 3.0 0.00 0.00 0.00 77 1019.7
20260902064105 61 348 0.0 3.0 0.00 0.00 0.00 78 1019.7
20260902063605 60 3 0.0 2.0 0.00 0.00 0.00 79 1019.7
20260902063106 60 353 0.0 0.0 0.00 0.00 0.00 77 1019.8
20260902062606 60 358 0.0 1.0 0.00 0.00 0.00 80 1019.9
20260902062105 59 355 1.0 2.0 0.00 0.00 0.00 81 1019.9
20260902061606 58 353 1.0 3.0 0.00 0.00 0.00 81 1020.0
20260902061105 58 346 0.0 2.0 0.00 0.00 0.00 82 1020.0
20260902060605 57 350 1.0 3.0 0.00 0.00 0.00 82 1020.0
20260902060106 57 354 1.0 3.0 0.00 0.00 0.00 81 1020.0
20260902055107 56 352 1.0 2.0 0.00 0.00 0.00 82 1020.0
20260902054606 56 348 1.0 2.0 0.00 0.00 0.00 81 1019.9
20260902054105 57 352 0.0 2.0 0.00 0.00 0.00 82 1019.9
20260902053106 55 349 0.0 1.0 0.00 0.00 0.00 83 1019.8
20260902052605 54 354 0.0 1.0 0.00 0.00 0.00 85 1019.8
20260902052106 54 357 1.0 3.0 0.00 0.00 0.00 85 1019.7
20260902051606 53 355 0.0 3.0 0.00 0.00 0.00 85 1019.7
20260902051106 53 358 0.0 0.0 0.00 0.00 0.00 85 1019.7
20260902050606 53 357 0.0 1.0 0.00 0.00 0.00 86 1019.6
20260902050106 53 356 0.0 1.0 0.00 0.00 0.00 86 1019.6
20260902045605 53 347 1.0 3.0 0.00 0.00 0.00 86 1019.7
20260902045105 54 0 0.0 1.0 0.00 0.00 0.00 85 1019.7
20260902044606 53 342 1.0 2.0 0.00 0.00 0.00 85 1019.6
20260902043605 53 0 1.0 3.0 0.00 0.00 0.00 85 1019.7
20260902043105 53 0 2.0 3.0 0.00 0.00 0.00 85 1019.7
20260902042605 53 0 3.0 3.0 0.00 0.00 0.00 85 1019.7
20260902042105 53 0 3.0 5.0 0.00 0.00 0.00 85 1019.8
20260902040605 53 351 2.0 5.0 0.00 0.00 0.00 84 1019.7
20260902040105 53 0 3.0 5.0 0.00 0.00 0.00 85 1019.7
20260902035606 53 0 3.0 5.0 0.00 0.00 0.00 85 1019.7
20260902034605 53 357 3.0 3.0 0.00 0.00 0.00 86 1019.7
20260902034105 53 357 3.0 5.0 0.00 0.00 0.00 86 1019.8
20260902033105 53 0 0.0 2.0 0.00 0.00 0.00 86 1019.8
20260902032605 53 0 0.0 2.0 0.00 0.00 0.00 86 1019.8
20260902032105 53 0 1.0 3.0 0.00 0.00 0.00 86 1019.7
20260902031606 53 0 2.0 3.0 0.00 0.00 0.00 85 1019.8
20260902031106 53 0 2.0 3.0 0.00 0.00 0.00 85 1019.8
20260902030605 53 0 3.0 5.0 0.00 0.00 0.00 85 1019.9
20260902030106 53 326 2.0 3.0 0.00 0.00 0.00 86 1019.9
20260902025605 53 232 2.0 5.0 0.00 0.00 0.00 86 1019.8
20260902025106 53 222 0.0 0.0 0.00 0.00 0.00 85 1019.9
20260902024105 53 239 0.0 0.0 0.00 0.00 0.00 85 1019.9
20260902023105 53 227 0.0 2.0 0.00 0.00 0.00 85 1019.7
20260902022605 54 229 0.0 3.0 0.00 0.00 0.00 85 1019.8
20260902022106 54 221 2.0 3.0 0.00 0.00 0.00 85 1019.8
20260902021605 54 200 1.0 2.0 0.00 0.00 0.00 85 1019.9
20260902021106 54 194 2.0 3.0 0.00 0.00 0.00 84 1019.9
20260902020605 54 207 1.0 3.0 0.00 0.00 0.00 84 1019.9
20260902020106 54 196 1.0 3.0 0.00 0.00 0.00 85 1019.9
20260902015106 54 188 1.0 2.0 0.00 0.00 0.00 85 1020.0
20260902014605 54 188 1.0 2.0 0.00 0.00 0.00 85 1020.0
20260902014106 54 186 1.0 3.0 0.00 0.00 0.00 84 1020.0
20260902012605 54 183 1.0 3.0 0.00 0.00 0.00 81 1020.0
20260902012105 54 183 2.0 3.0 0.00 0.00 0.00 81 1019.9
20260902011605 54 182 2.0 5.0 0.00 0.00 0.00 81 1019.9
20260902011105 54 175 3.0 3.0 0.00 0.00 0.00 81 1019.9
20260902010606 54 175 2.0 3.0 0.00 0.00 0.00 82 1019.9
20260902010105 54 175 2.0 3.0 0.00 0.00 0.00 83 1019.9
20260902005105 54 175 2.0 5.0 0.00 0.00 0.00 81 1020.0
20260902004106 55 176 3.0 5.0 0.00 0.00 0.00 80 1020.0
20260902003105 55 177 3.0 5.0 0.00 0.00 0.00 80 1020.1
20260902002605 55 177 0.0 0.0 0.00 0.00 0.00 80 1020.2
20260902002105 55 177 0.0 0.0 0.00 0.00 0.00 80 1020.1
20260902001105 55 177 0.0 0.0 0.00 0.00 0.00 79 1020.2
20260902000106 55 177 2.0 3.0 0.00 0.00 0.00 78 1020.3
20260901235605 55 177 2.0 3.0 0.00 0.00 0.00 78 1020.3
20260901235106 55 176 2.0 3.0 0.00 0.00 0.00 78 1020.3
20260901234606 55 177 2.0 3.0 0.00 0.00 0.00 79 1020.3
20260901234105 55 177 1.0 3.0 0.00 0.00 0.00 78 1020.3
20260901233607 55 176 3.0 5.0 0.00 0.00 0.00 78 1020.2
20260901233105 55 176 2.0 3.0 0.00 0.00 0.00 78 1020.2
20260901232105 55 176 3.0 6.0 0.00 0.00 0.00 78 1020.2
20260901230605 55 166 4.0 9.0 0.00 0.00 0.00 78 1020.1
20260901230105 55 166 5.0 8.0 0.00 0.00 0.00 80 1020.1
20260901225605 55 317 5.0 7.0 0.00 0.00 0.00 79 1020.1
20260901225105 55 153 6.0 10.0 0.00 0.00 0.00 78 1020.1
20260901224105 55 152 6.0 12.0 0.00 0.00 0.00 78 1020.1
20260901223605 56 153 7.0 12.0 0.00 0.00 0.00 79 1020.1
20260901223105 56 71 6.0 10.0 0.00 0.00 0.00 81 1020.0
20260901222605 55 145 8.0 12.0 0.00 0.00 0.00 80 1020.1
20260901222105 55 149 6.0 13.0 0.00 0.00 0.00 78 1020.1
20260901221605 55 166 5.0 8.0 0.00 0.00 0.00 77 1020.1
20260901221105 55 165 6.0 8.0 0.00 0.00 0.00 77 1020.1
20260901220605 55 160 6.0 7.0 0.00 0.00 0.00 77 1020.1
20260901220105 55 177 5.0 7.0 0.00 0.00 0.00 77 1020.1
20260901215605 55 161 5.0 8.0 0.00 0.00 0.00 78 1020.1
20260901215104 55 163 5.0 12.0 0.00 0.00 0.00 76 1020.1
20260901214605 55 144 7.0 12.0 0.00 0.00 0.00 76 1020.1
20260901214105 55 146 6.0 9.0 0.00 0.00 0.00 79 1020.1
20260901213605 55 153 6.0 9.0 0.00 0.00 0.00 78 1020.1
20260901213105 55 171 6.0 7.0 0.00 0.00 0.00 77 1020.1
20260901212605 55 167 5.0 8.0 0.00 0.00 0.00 78 1020.2
20260901212105 55 172 5.0 7.0 0.00 0.00 0.00 80 1020.1
20260901211605 55 162 5.0 7.0 0.00 0.00 0.00 80 1020.0
20260901211104 55 165 5.0 7.0 0.00 0.00 0.00 81 1020.0
20260901210605 55 165 5.0 6.0 0.00 0.00 0.00 83 1020.0
20260901210105 55 165 5.0 6.0 0.00 0.00 0.00 83 1020.0
20260901205605 55 171 3.0 5.0 0.00 0.00 0.00 84 1020.1
20260901205105 55 181 2.0 3.0 0.00 0.00 0.00 84 1020.1
20260901204605 55 186 0.0 1.0 0.00 0.00 0.00 84 1020.2
20260901204105 55 189 1.0 2.0 0.00 0.00 0.00 85 1020.1
20260901203605 55 185 3.0 3.0 0.00 0.00 0.00 85 1020.1
20260901202605 55 190 2.0 3.0 0.00 0.00 0.00 85 1020.1
20260901202105 55 189 2.0 3.0 0.00 0.00 0.00 85 1020.2
20260901201605 55 197 2.0 3.0 0.00 0.00 0.00 85 1020.2
20260901201105 55 186 3.0 3.0 0.00 0.00 0.00 85 1020.2
20260901200605 55 178 3.0 5.0 0.00 0.00 0.00 85 1020.1
20260901200105 55 183 3.0 6.0 0.00 0.00 0.00 85 1020.0
20260901195604 55 169 5.0 6.0 0.00 0.00 0.00 85 1020.0
20260901195105 55 176 5.0 6.0 0.00 0.00 0.00 84 1020.0
20260901194605 55 183 4.0 6.0 0.00 0.00 0.00 84 1019.9
20260901193104 55 174 3.0 6.0 0.00 0.00 0.00 85 1019.9
20260901192605 55 182 5.0 8.0 0.00 0.00 0.00 85 1019.8
20260901192104 55 206 2.0 3.0 0.00 0.00 0.00 86 1019.8
20260901191606 55 208 2.0 3.0 0.00 0.00 0.00 86 1019.8
20260901191105 55 203 2.0 3.0 0.00 0.00 0.00 86 1019.7
20260901190604 55 221 3.0 3.0 0.00 0.00 0.00 85 1019.7
20260901190105 55 229 1.0 3.0 0.00 0.00 0.00 85 1019.6
20260901185605 55 196 2.0 6.0 0.00 0.00 0.00 86 1019.6
20260901185104 55 177 3.0 3.0 0.00 0.00 0.00 86 1019.5
20260901184605 55 168 2.0 3.0 0.00 0.00 0.00 86 1019.6
20260901184105 55 166 2.0 3.0 0.00 0.00 0.00 86 1019.6
20260901183604 55 169 2.0 6.0 0.00 0.00 0.00 85 1019.6
20260901183107 55 202 3.0 5.0 0.00 0.00 0.00 85 1019.6
20260901182605 55 241 2.0 3.0 0.00 0.00 0.00 86 1019.6
20260901181604 55 214 3.0 5.0 0.00 0.00 0.00 86 1019.4
20260901181105 55 171 2.0 3.0 0.00 0.00 0.00 86 1019.5
20260901180604 55 162 0.0 2.0 0.00 0.00 0.00 86 1019.5
20260901175605 55 163 2.0 3.0 0.00 0.00 0.00 86 1019.4
20260901175104 55 163 1.0 3.0 0.00 0.00 0.00 86 1019.3
20260901174604 55 163 0.0 3.0 0.00 0.00 0.00 86 1019.3
20260901174104 55 162 1.0 3.0 0.00 0.00 0.00 86 1019.2
20260901173605 55 163 1.0 3.0 0.00 0.00 0.00 86 1019.2
20260901173104 55 162 1.0 2.0 0.00 0.00 0.00 86 1019.1
20260901172605 55 160 2.0 3.0 0.00 0.00 0.00 86 1019.2
20260901172105 55 162 2.0 3.0 0.00 0.00 0.00 85 1019.1
20260901171605 55 161 2.0 5.0 0.00 0.00 0.00 85 1019.1
20260901171105 55 159 3.0 5.0 0.00 0.00 0.00 85 1019.2
20260901170605 55 155 2.0 3.0 0.00 0.00 0.00 85 1019.2
20260901170105 55 153 2.0 2.0 0.00 0.00 0.00 86 1019.4
20260901165605 55 154 0.0 2.0 0.00 0.00 0.00 85 1019.4
20260901164605 55 154 2.0 3.0 0.00 0.00 0.00 86 1019.3
20260901163604 55 154 3.0 5.0 0.00 0.00 0.00 86 1019.2
20260901163105 55 152 3.0 6.0 0.00 0.00 0.00 86 1019.1
20260901162604 56 147 4.0 5.0 0.00 0.00 0.00 86 1019.2
20260901162105 56 147 3.0 3.0 0.00 0.00 0.00 86 1019.2
20260901161605 56 148 3.0 6.0 0.00 0.00 0.00 86 1019.1
20260901161104 56 147 4.0 6.0 0.00 0.00 0.00 86 1019.2
20260901160605 57 147 3.0 5.0 0.00 0.00 0.00 86 1019.2
20260901160105 57 147 3.0 5.0 0.00 0.00 0.00 85 1019.2
20260901155604 57 140 3.0 7.0 0.00 0.00 0.00 86 1019.2
20260901155104 57 143 3.0 7.0 0.00 0.00 0.00 86 1019.2
20260901154604 57 132 6.0 8.0 0.00 0.00 0.00 86 1019.3
20260901154105 58 133 3.0 8.0 0.00 0.00 0.00 85 1019.3
20260901153605 58 136 2.0 6.0 0.00 0.00 0.00 85 1019.2
20260901153104 58 137 3.0 8.0 0.00 0.00 0.00 86 1019.2